9W2KHE-13 Weather Reports


Display with metric or nautical units.
time (UTC)temp
F
wind
direction
speed
MPH
gust
MPH
rain 1hr
in
rain 24hr
in
rain mn
in
humidity
%
barometer
mb
20260508020132 85 151 0.0 0.0 0.00 0.00 0.00 73 1012.0
20260508015631 85 141 0.0 0.0 0.00 0.00 0.00 73 1012.0
20260508015130 85 135 0.0 0.0 0.00 0.00 0.00 73 1012.0
20260508014628 85 135 0.0 0.0 0.00 0.00 0.00 73 1011.9
20260508014127 85 137 0.0 0.0 0.00 0.00 0.00 73 1011.9
20260508013125 85 135 0.0 0.0 0.00 0.00 0.00 73 1011.8
20260508012123 84 135 0.0 0.0 0.00 0.00 0.00 72 1011.7
20260508011623 84 135 0.0 0.0 0.00 0.00 0.00 72 1011.7
20260508011121 84 135 0.0 0.0 0.00 0.00 0.00 72 1011.7
20260508010620 84 135 0.0 0.0 0.00 0.00 0.00 72 1011.7
20260508010120 84 157 0.0 0.0 0.00 0.00 0.00 72 1011.7
20260508005617 84 135 0.0 0.0 0.00 0.00 0.00 72 1011.6
20260508005116 84 143 0.0 0.0 0.00 0.00 0.00 72 1011.5
20260508004615 84 136 0.0 0.0 0.00 0.00 0.00 72 1011.6
20260508004115 84 135 0.0 0.0 0.00 0.00 0.00 72 1011.5
20260508003615 84 135 0.0 0.0 0.00 0.00 0.00 72 1011.4
20260508003113 84 135 0.0 0.0 0.00 0.00 0.00 72 1011.2
20260508002611 84 135 0.0 0.0 0.00 0.00 0.00 72 1011.1
20260508002111 84 135 0.0 0.0 0.00 0.00 0.00 72 1011.0
20260508001609 84 135 0.0 0.0 0.00 0.00 0.00 72 1010.9
20260508000607 84 135 0.0 0.0 0.00 0.00 0.00 72 1010.7
20260508000106 84 135 0.0 0.0 0.00 0.00 0.00 72 1010.6
20260507235605 84 135 0.0 0.0 0.00 0.00 0.00 72 1010.5
20260507235104 84 135 0.0 0.0 0.00 0.00 0.00 72 1010.2
20260507234603 84 135 0.0 0.0 0.00 0.00 0.00 72 1010.1
20260507234102 84 135 0.0 0.0 0.00 0.00 0.00 72 1010.2
20260507233601 84 135 0.0 0.0 0.00 0.00 0.00 72 1010.1
20260507233100 84 135 0.0 0.0 0.00 0.00 0.00 72 1010.3
20260507232600 84 135 0.0 0.0 0.00 0.00 0.00 72 1010.3
20260507232059 84 135 0.0 0.0 0.00 0.00 0.00 72 1010.2
20260507231556 84 135 0.0 0.0 0.00 0.00 0.00 72 1010.1
20260507231055 84 135 0.0 0.0 0.00 0.00 0.00 72 1010.0
20260507230554 84 135 0.0 0.0 0.00 0.00 0.00 72 1009.9
20260507230054 84 135 0.0 0.0 0.00 0.00 0.00 72 1009.9
20260507225554 84 135 0.0 0.0 0.00 0.00 0.00 72 1009.8
20260507225051 84 135 0.0 0.0 0.00 0.00 0.00 72 1009.7
20260507224550 84 135 0.0 0.0 0.00 0.00 0.00 72 1009.8
20260507224050 84 135 0.0 0.0 0.00 0.00 0.00 72 1009.8
20260507223549 84 135 0.0 0.0 0.00 0.00 0.00 72 1009.8
20260507223048 84 135 0.0 0.0 0.00 0.00 0.00 72 1009.9
20260507222546 84 135 0.0 0.0 0.00 0.00 0.00 72 1009.8
20260507222045 84 135 0.0 0.0 0.00 0.00 0.00 72 1009.7
20260507221544 84 135 0.0 0.0 0.00 0.00 0.00 72 1009.7
20260507221043 84 135 0.0 0.0 0.00 0.00 0.00 72 1009.6
20260507220543 84 135 0.0 0.0 0.00 0.00 0.00 72 1009.6
20260507220041 84 135 0.0 0.0 0.00 0.00 0.00 72 1009.6
20260507215540 84 135 0.0 0.0 0.00 0.00 0.00 72 1009.6
20260507215039 84 135 0.0 0.0 0.00 0.00 0.00 72 1009.5
20260507214538 84 135 0.0 0.0 0.00 0.00 0.00 72 1009.5
20260507214038 84 135 0.0 0.0 0.00 0.00 0.00 72 1009.4
20260507213536 84 135 0.0 0.0 0.00 0.00 0.00 71 1009.3
20260507213034 84 135 0.0 0.0 0.00 0.00 0.00 71 1009.4
20260507212533 84 135 0.0 0.0 0.00 0.00 0.00 71 1009.3
20260507212032 84 135 0.0 0.0 0.00 0.00 0.00 71 1009.2
20260507211533 84 135 0.0 0.0 0.00 0.00 0.00 71 1009.3
20260507211030 84 135 0.0 0.0 0.00 0.00 0.00 71 1009.1
20260507210530 84 135 0.0 0.0 0.00 0.00 0.00 71 1009.0
20260507210028 84 135 0.0 0.0 0.00 0.00 0.00 71 1008.9
20260507205527 84 135 0.0 0.0 0.00 0.00 0.00 71 1009.0
20260507205027 84 135 0.0 0.0 0.00 0.00 0.00 71 1009.1
20260507204525 84 135 0.0 0.0 0.00 0.00 0.00 71 1009.0
20260507204024 84 135 0.0 0.0 0.00 0.00 0.00 71 1009.0
20260507203523 84 135 0.0 0.0 0.00 0.00 0.00 71 1009.2
20260507203022 84 135 0.0 0.0 0.00 0.00 0.00 71 1009.0
20260507202522 84 135 0.0 0.0 0.00 0.00 0.00 71 1009.0
20260507202020 84 135 0.0 0.0 0.00 0.00 0.00 71 1009.0
20260507201519 84 135 0.0 0.0 0.00 0.00 0.00 71 1009.0
20260507201018 85 135 0.0 0.0 0.00 0.00 0.00 71 1009.0
20260507200517 85 135 0.0 0.0 0.00 0.00 0.00 71 1009.1
20260507200017 85 135 0.0 0.0 0.00 0.00 0.00 71 1009.2
20260507195514 85 135 0.0 0.0 0.00 0.00 0.00 71 1009.2
20260507194513 85 135 0.0 0.0 0.00 0.00 0.00 71 1009.1
20260507194012 85 135 0.0 0.0 0.00 0.00 0.00 71 1009.3
20260507193512 85 135 0.0 0.0 0.00 0.00 0.00 71 1009.3
20260507192508 85 135 0.0 0.0 0.00 0.00 0.00 70 1009.6
20260507192007 85 135 0.0 0.0 0.00 0.00 0.00 70 1009.6
20260507191506 85 135 0.0 0.0 0.00 0.00 0.00 70 1009.6
20260507185504 86 135 0.0 0.0 0.00 0.00 0.00 69 1009.7
20260507185004 86 135 0.0 0.0 0.00 0.00 0.00 69 1009.7
20260507184503 86 135 0.0 0.0 0.00 0.00 0.00 69 1009.6
20260507184003 86 135 0.0 0.0 0.00 0.00 0.00 69 1009.9
20260507183502 86 135 0.0 0.0 0.00 0.00 0.00 69 1009.9
20260507182959 86 135 0.0 0.0 0.00 0.00 0.00 69 1010.0
20260507182458 86 135 0.0 0.0 0.00 0.00 0.00 69 1010.1
20260507181957 86 135 0.0 0.0 0.00 0.00 0.00 69 1010.2
20260507181456 86 135 0.0 0.0 0.00 0.00 0.00 69 1010.3
20260507180957 86 135 0.0 0.0 0.00 0.00 0.00 69 1010.2
20260507175452 86 135 0.0 0.0 0.00 0.00 0.00 69 1010.5
20260507174951 86 135 0.0 0.0 0.00 0.00 0.00 69 1010.7
20260507174450 86 135 0.0 0.0 0.00 0.00 0.00 69 1010.7
20260507173949 86 135 0.0 0.0 0.00 0.00 0.00 69 1010.6
20260507173449 86 135 0.0 0.0 0.00 0.00 0.00 69 1010.5
20260507172947 86 135 0.0 0.0 0.00 0.00 0.00 69 1010.5
20260507172446 86 135 0.0 0.0 0.00 0.00 0.00 69 1010.4
20260507171946 86 135 0.0 0.0 0.00 0.00 0.00 69 1010.5
20260507171443 86 135 0.0 0.0 0.00 0.00 0.00 69 1010.4
20260507170942 86 135 0.0 0.0 0.00 0.00 0.00 69 1010.5
20260507165941 86 135 0.0 0.0 0.00 0.00 0.00 68 1010.6
20260507165441 86 135 0.0 0.0 0.00 0.00 0.00 68 1010.7
20260507164938 86 135 0.0 0.0 0.00 0.00 0.00 68 1010.8
20260507164437 86 135 0.0 0.0 0.00 0.00 0.00 68 1010.8
20260507163435 87 135 0.0 0.0 0.00 0.00 0.00 68 1011.0
20260507161431 86 135 0.0 0.0 0.00 0.00 0.00 68 1011.0
20260507160930 87 135 0.0 0.0 0.00 0.00 0.00 68 1010.9
20260507160430 87 135 0.0 0.0 0.00 0.00 0.00 68 1010.9
20260507155929 87 135 0.0 0.0 0.00 0.00 0.00 68 1011.0
20260507155427 87 135 0.0 0.0 0.00 0.00 0.00 68 1011.1
20260507154926 87 135 0.0 0.0 0.00 0.00 0.00 68 1011.1
20260507154425 87 135 0.0 0.0 0.00 0.00 0.00 68 1011.2
20260507153925 87 135 0.0 0.0 0.00 0.00 0.00 68 1011.2
20260507153422 87 135 0.0 0.0 0.00 0.00 0.00 68 1011.2
20260507152922 87 135 0.0 0.0 0.00 0.00 0.00 68 1011.1
20260507152421 87 135 0.0 0.0 0.00 0.00 0.00 68 1011.2
20260507151920 87 135 0.0 0.0 0.00 0.00 0.00 68 1011.2
20260507151420 87 135 0.0 0.0 0.00 0.00 0.00 68 1011.2
20260507150918 87 135 0.0 0.0 0.00 0.00 0.00 68 1011.4
20260507150416 87 135 0.0 0.0 0.00 0.00 0.00 68 1011.4
20260507145915 87 135 0.0 0.0 0.00 0.00 0.00 67 1011.5
20260507145414 87 135 0.0 0.0 0.00 0.00 0.00 67 1011.4
20260507144915 87 135 0.0 0.0 0.00 0.00 0.00 67 1011.4
20260507144412 87 135 0.0 0.0 0.00 0.00 0.00 67 1011.3
20260507143911 87 135 0.0 0.0 0.00 0.00 0.00 67 1011.4
20260507143410 87 135 0.0 0.0 0.00 0.00 0.00 67 1011.3
20260507142909 87 135 0.0 0.0 0.00 0.00 0.00 67 1011.3
20260507142409 87 135 0.0 0.0 0.00 0.00 0.00 67 1011.2
20260507141907 87 135 0.0 0.0 0.00 0.00 0.00 67 1011.2
20260507141406 87 135 0.0 0.0 0.00 0.00 0.00 67 1011.2
20260507140404 87 135 0.0 0.0 0.00 0.00 0.00 67 1010.9
20260507135904 87 135 0.0 0.0 0.00 0.00 0.00 67 1011.0
20260507135401 87 135 0.0 0.0 0.00 0.00 0.00 67 1011.0
20260507134900 87 135 0.0 0.0 0.00 0.00 0.00 67 1011.0
20260507132856 87 135 0.0 0.0 0.00 0.00 0.00 66 1010.7
20260507132355 87 135 0.0 0.0 0.00 0.00 0.00 66 1010.4
20260507131854 87 135 0.0 0.0 0.00 0.00 0.00 66 1010.2
20260507131353 87 135 0.0 0.0 0.00 0.00 0.00 66 1010.2
20260507130853 87 135 0.0 0.0 0.00 0.00 0.00 66 1010.2
20260507130351 87 135 0.0 0.0 0.00 0.00 0.00 66 1010.1
20260507125850 87 135 0.0 0.0 0.00 0.00 0.00 66 1010.0
20260507125349 87 135 0.0 0.0 0.00 0.00 0.00 66 1009.8
20260507124849 87 135 0.0 0.0 0.00 0.00 0.00 66 1009.7
20260507124348 87 135 0.0 0.0 0.00 0.00 0.00 66 1009.6
20260507123846 87 135 0.0 0.0 0.00 0.00 0.00 66 1009.5
20260507122844 87 135 0.0 0.0 0.00 0.00 0.00 66 1009.3
20260507122343 87 135 0.0 0.0 0.00 0.00 0.00 66 1009.4
20260507121843 87 135 0.0 0.0 0.00 0.00 0.00 66 1009.2
20260507121340 87 157 0.0 0.0 0.00 0.00 0.00 66 1009.1
20260507120339 87 143 0.0 0.0 0.00 0.00 0.00 66 1009.0
20260507115838 88 135 0.0 0.0 0.00 0.00 0.00 65 1008.9
20260507115338 88 135 0.0 0.0 0.00 0.00 0.00 65 1008.8
20260507114835 88 147 0.0 0.0 0.00 0.00 0.00 65 1008.8
20260507114334 88 135 0.0 0.0 0.00 0.00 0.00 65 1008.7
20260507113833 88 135 0.0 0.0 0.00 0.00 0.00 65 1008.5
20260507112832 88 141 0.0 0.0 0.00 0.00 0.00 65 1008.2
20260507112330 88 135 0.0 0.0 0.00 0.00 0.00 65 1008.1
20260507111829 88 135 0.0 0.0 0.00 0.00 0.00 65 1008.0
20260507110828 88 135 0.0 0.0 0.00 0.00 0.00 65 1008.0
20260507110327 88 135 0.0 0.0 0.00 0.00 0.00 65 1008.0
20260507105825 88 135 0.0 0.0 0.00 0.00 0.00 65 1007.8
20260507105324 88 135 0.0 0.0 0.00 0.00 0.00 65 1007.8
20260507104823 88 135 0.0 0.0 0.00 0.00 0.00 65 1007.7
20260507103822 89 135 0.0 0.0 0.00 0.00 0.00 64 1007.8
20260507103319 89 135 0.0 0.0 0.00 0.00 0.00 64 1007.8
20260507102819 89 139 0.0 0.0 0.00 0.00 0.00 64 1007.9
20260507102318 89 136 0.0 0.0 0.00 0.00 0.00 64 1007.8
20260507101817 89 135 0.0 0.0 0.00 0.00 0.00 64 1007.7
20260507101317 89 135 0.0 0.0 0.00 0.00 0.00 64 1007.5
20260507100814 89 135 0.0 0.0 0.00 0.00 0.00 63 1007.5
20260507100313 90 175 0.0 0.0 0.00 0.00 0.00 63 1007.7
20260507095812 90 165 0.0 0.0 0.00 0.00 0.00 63 1007.7
20260507095311 90 135 0.0 0.0 0.00 0.00 0.00 63 1007.7
20260507094811 90 160 0.0 0.0 0.00 0.00 0.00 63 1007.7
20260507094309 90 135 0.0 0.0 0.00 0.00 0.00 63 1007.7
20260507093808 90 143 0.0 0.0 0.00 0.00 0.00 63 1007.6
20260507093307 90 157 0.0 0.0 0.00 0.00 0.00 63 1007.7
20260507092806 90 135 0.0 0.0 0.00 0.00 0.00 63 1007.6
20260507092307 90 178 0.0 0.0 0.00 0.00 0.00 63 1007.5
20260507091804 90 135 0.0 0.0 0.00 0.00 0.00 63 1007.3
20260507091303 90 135 0.0 0.0 0.00 0.00 0.00 62 1007.3
20260507090802 90 135 0.0 0.0 0.00 0.00 0.00 62 1007.3
20260507090301 90 135 0.0 0.0 0.00 0.00 0.00 62 1007.2
20260507085801 90 157 0.0 0.0 0.00 0.00 0.00 62 1007.2
20260507085258 90 135 0.0 0.0 0.00 0.00 0.00 62 1007.2
20260507084257 90 157 0.0 0.0 0.00 0.00 0.00 61 1007.3
20260507083757 90 157 0.0 0.0 0.00 0.00 0.00 61 1007.2
20260507083255 91 135 0.0 0.0 0.00 0.00 0.00 61 1007.3
20260507081751 91 135 0.0 0.0 0.00 0.00 0.00 60 1007.4
20260507081251 92 135 0.0 0.0 0.00 0.00 0.00 60 1007.5
20260507080248 92 135 0.0 0.0 0.00 0.00 0.00 60 1007.8
20260507075747 92 135 0.0 0.0 0.00 0.00 0.00 60 1007.8
20260507075246 93 136 0.0 0.0 0.00 0.00 0.00 60 1007.7
20260507074745 93 135 0.0 0.0 0.00 0.00 0.00 60 1007.7
20260507073743 93 157 0.0 0.0 0.00 0.00 0.00 60 1007.5
20260507073242 93 135 0.0 0.0 0.00 0.00 0.00 60 1007.6
20260507072741 93 151 0.0 0.0 0.00 0.00 0.00 59 1007.9
20260507072240 93 135 0.0 0.0 0.00 0.00 0.00 59 1007.9
20260507071740 93 139 0.0 0.0 0.00 0.00 0.00 59 1008.0
20260507071238 93 147 0.0 0.0 0.00 0.00 0.00 60 1008.1
20260507070736 93 135 0.0 0.0 0.00 0.00 0.00 60 1008.1
20260507070236 93 151 0.0 0.0 0.00 0.00 0.00 60 1008.1
20260507065735 93 136 0.0 0.0 0.00 0.00 0.00 60 1008.2
20260507065234 93 135 0.0 0.0 0.00 0.00 0.00 60 1008.3
20260507064732 93 139 0.0 0.0 0.00 0.00 0.00 60 1008.3
20260507064231 93 135 0.0 0.0 0.00 0.00 0.00 60 1008.5
20260507063730 93 180 0.0 0.0 0.00 0.00 0.00 60 1008.6
20260507063229 93 135 0.0 0.0 0.00 0.00 0.00 60 1008.6
20260507062729 93 159 0.0 0.0 0.00 0.00 0.00 60 1008.6
20260507062227 93 135 0.0 0.0 0.00 0.00 0.00 60 1008.6
20260507061726 93 150 0.0 0.0 0.00 0.00 0.00 60 1008.5
20260507061225 93 138 0.0 0.0 0.00 0.00 0.00 60 1008.6
20260507055722 93 138 0.0 0.0 0.00 0.00 0.00 60 1009.0
20260507055229 93 137 0.0 0.0 0.00 0.00 0.00 60 1009.0
20260507053721 93 135 0.0 0.0 0.00 0.00 0.00 60 1009.1
20260507052216 92 135 0.0 0.0 0.00 0.00 0.00 61 1009.3
20260507051714 92 177 0.0 0.0 0.00 0.00 0.00 61 1009.4
20260507051215 92 144 0.0 0.0 0.00 0.00 0.00 62 1009.5
20260507050711 91 152 0.0 0.0 0.00 0.00 0.00 62 1009.5
20260507045710 91 135 0.0 0.0 0.00 0.00 0.00 63 1009.7
20260507045214 90 166 0.0 0.0 0.00 0.00 0.00 64 1009.9
20260507044714 90 137 0.0 0.0 0.00 0.00 0.00 65 1010.0
20260507044206 90 157 0.0 0.0 0.00 0.00 0.00 65 1010.1
20260507043705 90 135 0.0 0.0 0.00 0.00 0.00 66 1010.2
20260507041200 89 135 0.0 0.0 0.00 0.00 0.00 68 1010.4
20260507040700 88 136 0.0 0.0 0.00 0.00 0.00 68 1010.5
20260507040159 88 135 0.0 0.0 0.00 0.00 0.00 68 1010.5
20260507035703 88 135 0.0 0.0 0.00 0.00 0.00 69 1010.5
20260507035201 88 166 0.0 0.0 0.00 0.00 0.00 69 1010.6
20260507034700 88 161 0.0 0.0 0.00 0.00 0.00 69 1010.6
20260507034153 88 135 0.0 0.0 0.00 0.00 0.00 70 1010.7
20260507033654 87 135 0.0 0.0 0.00 0.00 0.00 70 1010.7
20260507033159 87 155 0.0 0.0 0.00 0.00 0.00 71 1010.8
20260507032650 87 141 0.0 0.0 0.00 0.00 0.00 71 1010.7
20260507032150 87 135 0.0 0.0 0.00 0.00 0.00 71 1010.9
20260507031649 86 135 0.0 0.0 0.00 0.00 0.00 72 1010.8
20260507031148 86 135 0.0 0.0 0.00 0.00 0.00 72 1011.0
20260507030145 86 139 0.0 0.0 0.00 0.00 0.00 73 1011.1
20260507025143 85 135 0.0 0.0 0.00 0.00 0.00 73 1011.1
20260507024642 85 157 0.0 0.0 0.00 0.00 0.00 73 1011.2
20260507023139 85 135 0.0 0.0 0.00 0.00 0.00 73 1011.3
20260507022639 85 135 0.0 0.0 0.00 0.00 0.00 73 1011.2
20260507022137 84 135 0.0 0.0 0.00 0.00 0.00 73 1011.2
20260507021637 84 135 0.0 0.0 0.00 0.00 0.00 73 1011.2